Time,TemperatureF,DewpointF,PressureIn,WindDirection,WindDirectionDegrees,WindSpeedMPH,WindSpeedGustMPH,Humidity,HourlyPrecipIn,Conditions,Clouds,dailyrainin,SoftwareType,DateUTC
2013-09-10 00:02:00,62.0,55.7,28.45,ENE,67,1.0,6.0,80,0.00,,,0.00,Weather View 32 v70,2013-09-10 07:02:00,
2013-09-10 00:07:00,62.0,55.7,28.45,ENE,67,0.0,6.0,80,0.00,,,0.00,Weather View 32 v70,2013-09-10 07:07:00,
2013-09-10 00:12:00,62.0,55.7,28.45,ENE,67,4.0,6.0,80,0.00,,,0.00,Weather View 32 v70,2013-09-10 07:12:00,
2013-09-10 00:17:00,62.0,55.7,28.45,East,90,2.0,6.0,80,0.00,,,0.00,Weather View 32 v70,2013-09-10 07:17:00,
2013-09-10 00:22:00,61.0,54.8,28.45,East,90,2.0,6.0,80,0.00,,,0.00,Weather View 32 v70,2013-09-10 07:22:00,
2013-09-10 00:27:00,61.0,54.8,28.45,East,90,2.0,6.0,80,0.00,,,0.00,Weather View 32 v70,2013-09-10 07:27:00,
2013-09-10 00:32:00,61.0,55.1,28.46,NE,45,6.0,6.0,81,0.00,,,0.00,Weather View 32 v70,2013-09-10 07:32:00,
2013-09-10 00:37:00,61.0,55.1,28.46,NE,45,4.0,7.0,81,0.00,,,0.00,Weather View 32 v70,2013-09-10 07:37:00,
2013-09-10 00:42:00,61.0,55.1,28.46,NE,45,1.0,7.0,81,0.00,,,0.00,Weather View 32 v70,2013-09-10 07:42:00,
2013-09-10 00:47:00,60.0,54.5,28.46,NE,45,0.0,7.0,82,0.00,,,0.00,Weather View 32 v70,2013-09-10 07:47:00,
2013-09-10 00:52:00,60.0,54.8,28.46,NE,45,4.0,7.0,83,0.00,,,0.00,Weather View 32 v70,2013-09-10 07:52:00,
2013-09-10 00:57:00,60.0,54.5,28.46,NE,45,2.0,7.0,82,0.00,,,0.00,Weather View 32 v70,2013-09-10 07:57:00,
2013-09-10 01:02:00,60.0,54.8,28.46,NE,45,3.0,7.0,83,0.00,,,0.00,Weather View 32 v70,2013-09-10 08:02:00,
2013-09-10 01:07:00,60.0,54.8,28.46,NE,45,5.0,7.0,83,0.00,,,0.00,Weather View 32 v70,2013-09-10 08:07:00,
2013-09-10 01:12:00,60.0,54.8,28.46,NE,45,4.0,7.0,83,0.00,,,0.00,Weather View 32 v70,2013-09-10 08:12:00,
2013-09-10 01:17:00,60.0,55.1,28.46,East,90,1.0,7.0,84,0.00,,,0.00,Weather View 32 v70,2013-09-10 08:17:00,
2013-09-10 01:22:00,60.0,55.5,28.46,ENE,67,2.0,7.0,85,0.00,,,0.00,Weather View 32 v70,2013-09-10 08:22:00,
2013-09-10 01:27:00,59.0,54.2,28.46,East,90,4.0,7.0,84,0.00,,,0.00,Weather View 32 v70,2013-09-10 08:27:00,
2013-09-10 01:32:00,59.0,54.5,28.47,NE,45,4.0,7.0,85,0.00,,,0.00,Weather View 32 v70,2013-09-10 08:32:00,
2013-09-10 01:37:00,59.0,54.5,28.47,ENE,67,6.0,7.0,85,0.00,,,0.00,Weather View 32 v70,2013-09-10 08:37:00,
2013-09-10 01:42:00,59.0,54.2,28.47,ENE,67,6.0,6.0,84,0.00,,,0.00,Weather View 32 v70,2013-09-10 08:42:00,
2013-09-10 01:47:00,59.0,54.5,28.47,ENE,67,0.0,6.0,85,0.00,,,0.00,Weather View 32 v70,2013-09-10 08:47:00,
2013-09-10 01:52:00,58.0,53.8,28.47,ENE,67,2.0,6.0,86,0.00,,,0.00,Weather View 32 v70,2013-09-10 08:52:00,
2013-09-10 01:57:00,58.0,54.1,28.47,ENE,67,5.0,6.0,87,0.00,,,0.00,Weather View 32 v70,2013-09-10 08:57:00,
2013-09-10 02:02:00,58.0,54.1,28.48,NE,45,3.0,6.0,87,0.00,,,0.00,Weather View 32 v70,2013-09-10 09:02:00,
2013-09-10 02:07:00,58.0,54.1,28.48,NE,45,2.0,6.0,87,0.00,,,0.00,Weather View 32 v70,2013-09-10 09:07:00,
2013-09-10 02:12:00,58.0,54.1,28.47,NE,45,4.0,6.0,87,0.00,,,0.00,Weather View 32 v70,2013-09-10 09:12:00,
2013-09-10 02:17:00,58.0,54.5,28.47,ENE,67,2.0,6.0,88,0.00,,,0.00,Weather View 32 v70,2013-09-10 09:17:00,
2013-09-10 02:22:00,58.0,54.1,28.47,NE,45,3.0,6.0,87,0.00,,,0.00,Weather View 32 v70,2013-09-10 09:22:00,
2013-09-10 02:27:00,58.0,54.5,28.47,NE,45,0.0,6.0,88,0.00,,,0.00,Weather View 32 v70,2013-09-10 09:27:00,
2013-09-10 02:32:00,57.0,53.5,28.48,NE,45,0.0,6.0,88,0.00,,,0.00,Weather View 32 v70,2013-09-10 09:32:00,
2013-09-10 02:37:00,57.0,53.5,28.48,NE,45,2.0,6.0,88,0.00,,,0.00,Weather View 32 v70,2013-09-10 09:37:00,
2013-09-10 02:42:00,57.0,53.5,28.48,NE,45,3.0,6.0,88,0.00,,,0.00,Weather View 32 v70,2013-09-10 09:42:00,
2013-09-10 02:47:00,57.0,53.5,28.48,ENE,67,4.0,6.0,88,0.00,,,0.00,Weather View 32 v70,2013-09-10 09:47:00,
2013-09-10 02:52:00,57.0,53.5,28.48,ENE,67,4.0,6.0,88,0.00,,,0.00,Weather View 32 v70,2013-09-10 09:52:00,
2013-09-10 02:57:00,57.0,53.8,28.48,ENE,67,1.0,6.0,89,0.00,,,0.00,Weather View 32 v70,2013-09-10 09:57:00,
2013-09-10 03:02:00,57.0,53.8,28.48,ENE,67,0.0,6.0,89,0.00,,,0.00,Weather View 32 v70,2013-09-10 10:02:00,
2013-09-10 03:07:00,56.0,53.1,28.48,NE,45,1.0,6.0,90,0.00,,,0.00,Weather View 32 v70,2013-09-10 10:07:00,
2013-09-10 03:12:00,56.0,53.1,28.48,NE,45,2.0,6.0,90,0.00,,,0.00,Weather View 32 v70,2013-09-10 10:12:00,
2013-09-10 03:18:00,56.0,53.1,28.48,ENE,67,0.0,6.0,90,0.00,,,0.00,Weather View 32 v70,2013-09-10 10:18:00,
2013-09-10 03:23:00,56.0,53.4,28.48,ENE,67,1.0,6.0,91,0.00,,,0.00,Weather View 32 v70,2013-09-10 10:23:00,
2013-09-10 03:28:00,56.0,53.4,28.49,ENE,67,1.0,6.0,91,0.00,,,0.00,Weather View 32 v70,2013-09-10 10:28:00,
2013-09-10 03:33:00,56.0,53.4,28.49,ENE,67,1.0,6.0,91,0.00,,,0.00,Weather View 32 v70,2013-09-10 10:33:00,
2013-09-10 03:38:00,56.0,53.4,28.49,ENE,67,1.0,6.0,91,0.00,,,0.00,Weather View 32 v70,2013-09-10 10:38:00,
2013-09-10 03:43:00,56.0,53.4,28.49,ENE,67,5.0,5.0,91,0.00,,,0.00,Weather View 32 v70,2013-09-10 10:43:00,
2013-09-10 03:48:00,56.0,53.1,28.49,NE,45,2.0,5.0,90,0.00,,,0.00,Weather View 32 v70,2013-09-10 10:48:00,
2013-09-10 03:53:00,56.0,53.4,28.49,NE,45,4.0,5.0,91,0.00,,,0.00,Weather View 32 v70,2013-09-10 10:53:00,
2013-09-10 03:58:00,56.0,53.4,28.49,NE,45,2.0,5.0,91,0.00,,,0.00,Weather View 32 v70,2013-09-10 10:58:00,
2013-09-10 04:03:00,56.0,53.4,28.49,NE,45,0.0,5.0,91,0.00,,,0.00,Weather View 32 v70,2013-09-10 11:03:00,
2013-09-10 04:08:00,56.0,53.4,28.50,NE,45,0.0,5.0,91,0.00,,,0.00,Weather View 32 v70,2013-09-10 11:08:00,
2013-09-10 04:13:00,55.0,52.4,28.50,ENE,67,3.0,5.0,91,0.00,,,0.00,Weather View 32 v70,2013-09-10 11:13:00,
2013-09-10 04:18:00,55.0,52.4,28.50,ENE,67,2.0,5.0,91,0.00,,,0.00,Weather View 32 v70,2013-09-10 11:18:00,
2013-09-10 04:23:00,55.0,52.4,28.50,ENE,67,1.0,5.0,91,0.00,,,0.00,Weather View 32 v70,2013-09-10 11:23:00,
2013-09-10 04:28:00,55.0,52.4,28.50,ENE,67,6.0,6.0,91,0.00,,,0.00,Weather View 32 v70,2013-09-10 11:28:00,
2013-09-10 04:33:00,55.0,52.4,28.50,ENE,67,1.0,6.0,91,0.00,,,0.00,Weather View 32 v70,2013-09-10 11:33:00,
2013-09-10 04:38:00,55.0,52.7,28.50,ENE,67,0.0,6.0,92,0.00,,,0.00,Weather View 32 v70,2013-09-10 11:38:00,
2013-09-10 04:43:00,55.0,52.4,28.50,East,90,2.0,6.0,91,0.00,,,0.00,Weather View 32 v70,2013-09-10 11:43:00,
2013-09-10 04:48:00,54.0,51.4,28.50,East,90,2.0,6.0,91,0.00,,,0.00,Weather View 32 v70,2013-09-10 11:48:00,
2013-09-10 04:53:00,54.0,51.7,28.50,NE,45,3.0,6.0,92,0.00,,,0.00,Weather View 32 v70,2013-09-10 11:53:00,
2013-09-10 04:58:00,54.0,51.4,28.50,ENE,67,5.0,6.0,91,0.00,,,0.00,Weather View 32 v70,2013-09-10 11:58:00,
2013-09-10 05:03:00,54.0,51.4,28.50,ENE,67,5.0,6.0,91,0.00,,,0.00,Weather View 32 v70,2013-09-10 12:03:00,
2013-09-10 05:08:00,55.0,52.4,28.50,NE,45,6.0,6.0,91,0.00,,,0.00,Weather View 32 v70,2013-09-10 12:08:00,
2013-09-10 05:13:00,54.0,51.4,28.50,NE,45,2.0,7.0,91,0.00,,,0.00,Weather View 32 v70,2013-09-10 12:13:00,
2013-09-10 05:18:00,55.0,52.4,28.50,ENE,67,4.0,7.0,91,0.00,,,0.00,Weather View 32 v70,2013-09-10 12:18:00,
2013-09-10 05:23:00,54.0,51.4,28.50,ENE,67,4.0,7.0,91,0.00,,,0.00,Weather View 32 v70,2013-09-10 12:23:00,
2013-09-10 05:28:00,54.0,51.4,28.51,NE,45,4.0,7.0,91,0.00,,,0.00,Weather View 32 v70,2013-09-10 12:28:00,
2013-09-10 05:33:00,54.0,51.7,28.51,NE,45,4.0,7.0,92,0.00,,,0.00,Weather View 32 v70,2013-09-10 12:33:00,
2013-09-10 05:38:00,54.0,51.4,28.51,NE,45,1.0,7.0,91,0.00,,,0.00,Weather View 32 v70,2013-09-10 12:38:00,
2013-09-10 05:43:00,54.0,51.7,28.51,NE,45,5.0,7.0,92,0.00,,,0.00,Weather View 32 v70,2013-09-10 12:43:00,
2013-09-10 05:48:00,54.0,51.4,28.51,ENE,67,4.0,7.0,91,0.00,,,0.00,Weather View 32 v70,2013-09-10 12:48:00,
2013-09-10 05:53:00,54.0,51.4,28.51,ENE,67,3.0,7.0,91,0.00,,,0.00,Weather View 32 v70,2013-09-10 12:53:00,
2013-09-10 05:58:00,54.0,51.4,28.51,ENE,67,1.0,7.0,91,0.00,,,0.00,Weather View 32 v70,2013-09-10 12:58:00,
2013-09-10 06:03:00,54.0,51.4,28.51,NE,45,4.0,7.0,91,0.00,,,0.00,Weather View 32 v70,2013-09-10 13:03:00,
2013-09-10 06:08:00,54.0,51.4,28.52,NE,45,6.0,7.0,91,0.00,,,0.00,Weather View 32 v70,2013-09-10 13:08:00,
2013-09-10 06:13:00,54.0,51.4,28.52,NE,45,6.0,7.0,91,0.00,,,0.00,Weather View 32 v70,2013-09-10 13:13:00,
2013-09-10 06:18:00,54.0,51.4,28.52,NE,45,4.0,7.0,91,0.00,,,0.00,Weather View 32 v70,2013-09-10 13:18:00,
2013-09-10 06:23:00,54.0,51.4,28.52,NE,45,3.0,7.0,91,0.00,,,0.00,Weather View 32 v70,2013-09-10 13:23:00,
2013-09-10 06:28:00,54.0,51.4,28.52,NE,45,4.0,7.0,91,0.00,,,0.00,Weather View 32 v70,2013-09-10 13:28:00,
2013-09-10 06:33:00,54.0,51.4,28.52,NE,45,1.0,7.0,91,0.00,,,0.00,Weather View 32 v70,2013-09-10 13:33:00,
2013-09-10 06:38:00,54.0,51.4,28.52,NE,45,4.0,7.0,91,0.00,,,0.00,Weather View 32 v70,2013-09-10 13:38:00,
2013-09-10 06:43:00,54.0,51.4,28.52,NE,45,2.0,7.0,91,0.00,,,0.00,Weather View 32 v70,2013-09-10 13:43:00,
2013-09-10 06:48:00,54.0,51.4,28.52,NE,45,4.0,7.0,91,0.00,,,0.00,Weather View 32 v70,2013-09-10 13:48:00,
2013-09-10 06:53:00,55.0,51.8,28.52,NE,45,4.0,7.0,89,0.00,,,0.00,Weather View 32 v70,2013-09-10 13:53:00,
2013-09-10 06:58:00,55.0,51.5,28.52,NE,45,4.0,7.0,88,0.00,,,0.00,Weather View 32 v70,2013-09-10 13:58:00,
2013-09-10 07:03:00,56.0,51.9,28.52,NE,45,3.0,7.0,86,0.00,,,0.00,Weather View 32 v70,2013-09-10 14:03:00,
2013-09-10 07:08:00,56.0,51.5,28.52,WNW,292,5.0,7.0,85,0.00,,,0.00,Weather View 32 v70,2013-09-10 14:08:00,
2013-09-10 07:13:00,57.0,52.2,28.52,ENE,67,6.0,7.0,84,0.00,,,0.00,Weather View 32 v70,2013-09-10 14:13:00,
2013-09-10 07:18:00,57.0,51.9,28.53,East,90,5.0,7.0,83,0.00,,,0.00,Weather View 32 v70,2013-09-10 14:18:00,
2013-09-10 07:23:00,56.0,51.2,28.53,ENE,67,6.0,7.0,84,0.00,,,0.00,Weather View 32 v70,2013-09-10 14:23:00,
2013-09-10 07:28:00,57.0,52.2,28.53,NE,45,5.0,7.0,84,0.00,,,0.00,Weather View 32 v70,2013-09-10 14:28:00,
2013-09-10 07:33:00,57.0,51.9,28.53,NE,45,2.0,7.0,83,0.00,,,0.00,Weather View 32 v70,2013-09-10 14:33:00,
2013-09-10 07:38:00,57.0,51.5,28.54,NE,45,5.0,7.0,82,0.00,,,0.00,Weather View 32 v70,2013-09-10 14:38:00,
2013-09-10 07:43:00,58.0,52.2,28.54,NE,45,2.0,7.0,81,0.00,,,0.00,Weather View 32 v70,2013-09-10 14:43:00,
2013-09-10 07:48:00,58.0,51.8,28.54,NE,45,4.0,7.0,80,0.00,,,0.00,Weather View 32 v70,2013-09-10 14:48:00,
2013-09-10 07:53:00,59.0,52.5,28.54,NE,45,4.0,7.0,79,0.00,,,0.00,Weather View 32 v70,2013-09-10 14:53:00,
2013-09-10 07:58:00,60.0,52.8,28.53,NNE,22,4.0,7.0,77,0.00,,,0.00,Weather View 32 v70,2013-09-10 14:58:00,
2013-09-10 08:03:00,61.0,53.4,28.53,North,360,5.0,7.0,76,0.00,,,0.00,Weather View 32 v70,2013-09-10 15:03:00,
2013-09-10 08:08:00,62.0,54.0,28.52,NE,45,5.0,8.0,75,0.00,,,0.00,Weather View 32 v70,2013-09-10 15:08:00,
2013-09-10 08:13:00,62.0,54.0,28.52,NE,45,7.0,8.0,75,0.00,,,0.00,Weather View 32 v70,2013-09-10 15:13:00,
2013-09-10 08:18:00,63.0,54.6,28.53,NE,45,5.0,8.0,74,0.00,,,0.00,Weather View 32 v70,2013-09-10 15:18:00,
2013-09-10 08:23:00,63.0,54.2,28.53,NE,45,4.0,8.0,73,0.00,,,0.00,Weather View 32 v70,2013-09-10 15:23:00,
2013-09-10 08:28:00,64.0,54.8,28.52,NE,45,5.0,10.0,72,0.00,,,0.00,Weather View 32 v70,2013-09-10 15:28:00,
2013-09-10 08:33:00,65.0,54.9,28.52,ENE,67,6.0,10.0,70,0.00,,,0.00,Weather View 32 v70,2013-09-10 15:33:00,
2013-09-10 08:38:00,66.0,55.5,28.52,NE,45,8.0,10.0,69,0.00,,,0.00,Weather View 32 v70,2013-09-10 15:38:00,
2013-09-10 08:43:00,66.0,55.1,28.52,ENE,67,6.0,10.0,68,0.00,,,0.00,Weather View 32 v70,2013-09-10 15:43:00,
2013-09-10 08:48:00,67.0,55.2,28.52,NE,45,6.0,12.0,66,0.00,,,0.00,Weather View 32 v70,2013-09-10 15:48:00,
2013-09-10 08:53:00,67.0,54.0,28.52,NE,45,9.0,13.0,63,0.00,,,0.00,Weather View 32 v70,2013-09-10 15:53:00,
2013-09-10 08:58:00,68.0,54.5,28.52,NE,45,10.0,13.0,62,0.00,,,0.00,Weather View 32 v70,2013-09-10 15:58:00,
2013-09-10 09:03:00,69.0,54.5,28.52,North,360,9.0,14.0,60,0.00,,,0.00,Weather View 32 v70,2013-09-10 16:03:00,
2013-09-10 09:08:00,69.0,54.5,28.52,NE,45,9.0,14.0,60,0.00,,,0.00,Weather View 32 v70,2013-09-10 16:08:00,
2013-09-10 09:13:00,69.0,53.6,28.52,ENE,67,10.0,14.0,58,0.00,,,0.00,Weather View 32 v70,2013-09-10 16:13:00,
2013-09-10 09:18:00,70.0,55.0,28.52,North,360,10.0,14.0,59,0.00,,,0.00,Weather View 32 v70,2013-09-10 16:18:00,
2013-09-10 09:23:00,70.0,54.5,28.52,NE,45,9.0,14.0,58,0.00,,,0.00,Weather View 32 v70,2013-09-10 16:23:00,
2013-09-10 09:29:00,70.0,53.5,28.53,NE,45,8.0,14.0,56,0.00,,,0.00,Weather View 32 v70,2013-09-10 16:29:00,
2013-09-10 09:34:00,70.0,53.5,28.53,NE,45,7.0,14.0,56,0.00,,,0.00,Weather View 32 v70,2013-09-10 16:34:00,
2013-09-10 09:39:00,71.0,54.5,28.52,North,360,7.0,14.0,56,0.00,,,0.00,Weather View 32 v70,2013-09-10 16:39:00,
2013-09-10 09:44:00,71.0,54.0,28.52,North,360,7.0,14.0,55,0.00,,,0.00,Weather View 32 v70,2013-09-10 16:44:00,
2013-09-10 09:49:00,72.0,54.4,28.52,North,360,8.0,14.0,54,0.00,,,0.00,Weather View 32 v70,2013-09-10 16:49:00,
2013-09-10 09:54:00,72.0,53.9,28.52,NE,45,7.0,14.0,53,0.00,,,0.00,Weather View 32 v70,2013-09-10 16:54:00,
2013-09-10 09:59:00,73.0,54.3,28.52,North,360,6.0,14.0,52,0.00,,,0.00,Weather View 32 v70,2013-09-10 16:59:00,
2013-09-10 10:04:00,73.0,54.3,28.52,NE,45,10.0,14.0,52,0.00,,,0.00,Weather View 32 v70,2013-09-10 17:04:00,
2013-09-10 10:09:00,74.0,54.1,28.52,NE,45,10.0,14.0,50,0.00,,,0.00,Weather View 32 v70,2013-09-10 17:09:00,
2013-09-10 10:14:00,74.0,53.6,28.52,NE,45,9.0,13.0,49,0.00,,,0.00,Weather View 32 v70,2013-09-10 17:14:00,
2013-09-10 10:19:00,74.0,53.6,28.52,NE,45,5.0,13.0,49,0.00,,,0.00,Weather View 32 v70,2013-09-10 17:19:00,
2013-09-10 10:24:00,74.0,53.0,28.52,NE,45,6.0,13.0,48,0.00,,,0.00,Weather View 32 v70,2013-09-10 17:24:00,
2013-09-10 10:29:00,75.0,53.9,28.51,NNE,22,3.0,13.0,48,0.00,,,0.00,Weather View 32 v70,2013-09-10 17:29:00,
2013-09-10 10:34:00,75.0,53.3,28.51,NNE,22,6.0,13.0,47,0.00,,,0.00,Weather View 32 v70,2013-09-10 17:34:00,
2013-09-10 10:39:00,76.0,54.2,28.51,NE,45,6.0,12.0,47,0.00,,,0.00,Weather View 32 v70,2013-09-10 17:39:00,
2013-09-10 10:44:00,76.0,53.7,28.51,NE,45,7.0,12.0,46,0.00,,,0.00,Weather View 32 v70,2013-09-10 17:44:00,
2013-09-10 10:49:00,76.0,53.1,28.51,NE,45,1.0,12.0,45,0.00,,,0.00,Weather View 32 v70,2013-09-10 17:49:00,
2013-09-10 10:54:00,77.0,54.0,28.51,NE,45,5.0,12.0,45,0.00,,,0.00,Weather View 32 v70,2013-09-10 17:54:00,
2013-09-10 10:59:00,78.0,54.2,28.50,NNE,22,7.0,12.0,44,0.00,,,0.00,Weather View 32 v70,2013-09-10 17:59:00,
2013-09-10 11:04:00,79.0,53.9,28.50,North,360,6.0,12.0,42,0.00,,,0.00,Weather View 32 v70,2013-09-10 18:04:00,
2013-09-10 11:09:00,79.0,52.5,28.50,North,360,6.0,12.0,40,0.00,,,0.00,Weather View 32 v70,2013-09-10 18:09:00,
2013-09-10 11:14:00,79.0,52.5,28.50,NNE,22,8.0,12.0,40,0.00,,,0.00,Weather View 32 v70,2013-09-10 18:14:00,
2013-09-10 11:19:00,80.0,52.7,28.49,North,360,6.0,12.0,39,0.00,,,0.00,Weather View 32 v70,2013-09-10 18:19:00,
2013-09-10 11:24:00,80.0,52.0,28.49,NE,45,5.0,12.0,38,0.00,,,0.00,Weather View 32 v70,2013-09-10 18:24:00,
2013-09-10 11:29:00,81.0,52.2,28.48,NE,45,6.0,12.0,37,0.00,,,0.00,Weather View 32 v70,2013-09-10 18:29:00,
2013-09-10 11:35:00,81.0,52.2,28.48,NE,45,6.0,12.0,37,0.00,,,0.00,Weather View 32 v70,2013-09-10 18:35:00,
2013-09-10 11:40:00,81.0,51.4,28.49,North,360,4.0,12.0,36,0.00,,,0.00,Weather View 32 v70,2013-09-10 18:40:00,
2013-09-10 11:45:00,82.0,51.6,28.49,East,90,7.0,11.0,35,0.00,,,0.00,Weather View 32 v70,2013-09-10 18:45:00,
2013-09-10 11:50:00,82.0,51.6,28.48,NNW,337,6.0,11.0,35,0.00,,,0.00,Weather View 32 v70,2013-09-10 18:50:00,
2013-09-10 11:55:00,83.0,51.6,28.48,North,360,0.0,11.0,34,0.00,,,0.00,Weather View 32 v70,2013-09-10 18:55:00,
2013-09-10 12:00:00,84.0,52.5,28.47,NNE,22,1.0,10.0,34,0.00,,,0.00,Weather View 32 v70,2013-09-10 19:00:00,
2013-09-10 12:05:00,85.0,52.6,28.47,North,360,5.0,10.0,33,0.00,,,0.00,Weather View 32 v70,2013-09-10 19:05:00,
2013-09-10 12:10:00,85.0,50.9,28.47,North,360,3.0,10.0,31,0.00,,,0.00,Weather View 32 v70,2013-09-10 19:10:00,
2013-09-10 12:15:00,85.0,52.6,28.47,West,270,4.0,10.0,33,0.00,,,0.00,Weather View 32 v70,2013-09-10 19:15:00,
2013-09-10 12:20:00,85.0,52.6,28.47,NW,315,3.0,10.0,33,0.00,,,0.00,Weather View 32 v70,2013-09-10 19:20:00,
2013-09-10 12:25:00,85.0,51.7,28.47,NNW,337,3.0,10.0,32,0.00,,,0.00,Weather View 32 v70,2013-09-10 19:25:00,
2013-09-10 12:30:00,85.0,51.7,28.47,NW,315,4.0,10.0,32,0.00,,,0.00,Weather View 32 v70,2013-09-10 19:30:00,
2013-09-10 12:35:00,85.0,50.9,28.47,NE,45,5.0,9.0,31,0.00,,,0.00,Weather View 32 v70,2013-09-10 19:35:00,
2013-09-10 12:40:00,86.0,50.9,28.46,NW,315,3.0,9.0,30,0.00,,,0.00,Weather View 32 v70,2013-09-10 19:40:00,
2013-09-10 12:45:00,86.0,50.9,28.46,North,360,0.0,9.0,30,0.00,,,0.00,Weather View 32 v70,2013-09-10 19:45:00,
2013-09-10 12:50:00,87.0,51.7,28.46,NW,315,5.0,9.0,30,0.00,,,0.00,Weather View 32 v70,2013-09-10 19:50:00,
2013-09-10 12:55:00,87.0,52.6,28.46,West,270,6.0,9.0,31,0.00,,,0.00,Weather View 32 v70,2013-09-10 19:55:00,
2013-09-10 13:00:00,86.0,50.9,28.46,West,270,5.0,9.0,30,0.00,,,0.00,Weather View 32 v70,2013-09-10 20:00:00,
2013-09-10 13:05:00,86.0,50.9,28.46,North,360,4.0,9.0,30,0.00,,,0.00,Weather View 32 v70,2013-09-10 20:05:00,
2013-09-10 13:10:00,87.0,51.7,28.46,NE,45,5.0,9.0,30,0.00,,,0.00,Weather View 32 v70,2013-09-10 20:10:00,
2013-09-10 13:15:00,86.0,49.9,28.46,NE,45,4.0,9.0,29,0.00,,,0.00,Weather View 32 v70,2013-09-10 20:15:00,
2013-09-10 13:20:00,87.0,49.8,28.45,NW,315,3.0,9.0,28,0.00,,,0.00,Weather View 32 v70,2013-09-10 20:20:00,
2013-09-10 13:25:00,88.0,49.7,28.45,North,360,2.0,9.0,27,0.00,,,0.00,Weather View 32 v70,2013-09-10 20:25:00,
2013-09-10 13:30:00,88.0,50.7,28.45,NE,45,0.0,9.0,28,0.00,,,0.00,Weather View 32 v70,2013-09-10 20:30:00,
2013-09-10 13:35:00,88.0,50.7,28.45,NE,45,4.0,9.0,28,0.00,,,0.00,Weather View 32 v70,2013-09-10 20:35:00,
2013-09-10 13:40:00,88.0,50.7,28.45,NE,45,8.0,9.0,28,0.00,,,0.00,Weather View 32 v70,2013-09-10 20:40:00,
2013-09-10 13:45:00,88.0,49.7,28.45,North,360,9.0,12.0,27,0.00,,,0.00,Weather View 32 v70,2013-09-10 20:45:00,
2013-09-10 13:50:00,88.0,50.7,28.45,North,360,7.0,12.0,28,0.00,,,0.00,Weather View 32 v70,2013-09-10 20:50:00,
2013-09-10 13:55:00,87.0,49.8,28.45,West,270,0.0,12.0,28,0.00,,,0.00,Weather View 32 v70,2013-09-10 20:55:00,
2013-09-10 14:00:00,88.0,50.7,28.45,North,360,3.0,12.0,28,0.00,,,0.00,Weather View 32 v70,2013-09-10 21:00:00,
2013-09-10 14:05:00,87.0,49.8,28.45,East,90,4.0,12.0,28,0.00,,,0.00,Weather View 32 v70,2013-09-10 21:05:00,
2013-09-10 14:10:00,88.0,49.7,28.44,North,360,4.0,12.0,27,0.00,,,0.00,Weather View 32 v70,2013-09-10 21:10:00,
2013-09-10 14:15:00,87.0,49.8,28.44,NW,315,6.0,12.0,28,0.00,,,0.00,Weather View 32 v70,2013-09-10 21:15:00,
2013-09-10 14:20:00,88.0,49.7,28.44,NW,315,6.0,12.0,27,0.00,,,0.00,Weather View 32 v70,2013-09-10 21:20:00,
2013-09-10 14:25:00,88.0,50.7,28.44,NW,315,6.0,12.0,28,0.00,,,0.00,Weather View 32 v70,2013-09-10 21:25:00,
2013-09-10 14:30:00,87.0,50.8,28.44,West,270,10.0,12.0,29,0.00,,,0.00,Weather View 32 v70,2013-09-10 21:30:00,
2013-09-10 14:35:00,88.0,50.7,28.44,West,270,8.0,12.0,28,0.00,,,0.00,Weather View 32 v70,2013-09-10 21:35:00,
2013-09-10 14:40:00,88.0,49.7,28.44,SW,225,0.0,12.0,27,0.00,,,0.00,Weather View 32 v70,2013-09-10 21:40:00,
2013-09-10 14:45:00,88.0,49.7,28.44,NW,315,1.0,12.0,27,0.00,,,0.00,Weather View 32 v70,2013-09-10 21:45:00,
2013-09-10 14:50:00,89.0,50.6,28.42,NNW,337,7.0,10.0,27,0.00,,,0.00,Weather View 32 v70,2013-09-10 21:50:00,
2013-09-10 14:55:00,90.0,50.4,28.42,North,360,6.0,10.0,26,0.00,,,0.00,Weather View 32 v70,2013-09-10 21:55:00,
2013-09-10 15:00:00,89.0,49.5,28.42,North,360,6.0,10.0,26,0.00,,,0.00,Weather View 32 v70,2013-09-10 22:00:00,
2013-09-10 15:05:00,89.0,49.5,28.42,NE,45,4.0,12.0,26,0.00,,,0.00,Weather View 32 v70,2013-09-10 22:05:00,
2013-09-10 15:10:00,89.0,49.5,28.42,WNW,292,1.0,12.0,26,0.00,,,0.00,Weather View 32 v70,2013-09-10 22:10:00,
2013-09-10 15:15:00,90.0,49.3,28.42,NW,315,6.0,12.0,25,0.00,,,0.00,Weather View 32 v70,2013-09-10 22:15:00,
2013-09-10 15:20:00,89.0,50.6,28.42,NW,315,7.0,12.0,27,0.00,,,0.00,Weather View 32 v70,2013-09-10 22:20:00,
2013-09-10 15:25:00,89.0,49.5,28.42,North,360,7.0,12.0,26,0.00,,,0.00,Weather View 32 v70,2013-09-10 22:25:00,
2013-09-10 15:30:00,90.0,49.3,28.41,NNE,22,8.0,12.0,25,0.00,,,0.00,Weather View 32 v70,2013-09-10 22:30:00,
2013-09-10 15:35:00,90.0,49.3,28.41,North,360,7.0,12.0,25,0.00,,,0.00,Weather View 32 v70,2013-09-10 22:35:00,
2013-09-10 15:40:00,90.0,49.3,28.41,North,360,11.0,12.0,25,0.00,,,0.00,Weather View 32 v70,2013-09-10 22:40:00,
2013-09-10 15:45:00,90.0,49.3,28.41,North,360,8.0,12.0,25,0.00,,,0.00,Weather View 32 v70,2013-09-10 22:45:00,
2013-09-10 15:50:00,90.0,49.3,28.40,North,360,10.0,12.0,25,0.00,,,0.00,Weather View 32 v70,2013-09-10 22:50:00,
2013-09-10 15:55:00,90.0,49.3,28.40,NNE,22,6.0,12.0,25,0.00,,,0.00,Weather View 32 v70,2013-09-10 22:55:00,
2013-09-10 16:00:00,90.0,49.3,28.40,North,360,5.0,12.0,25,0.00,,,0.00,Weather View 32 v70,2013-09-10 23:00:00,
2013-09-10 16:05:00,90.0,49.3,28.40,NW,315,9.0,12.0,25,0.00,,,0.00,Weather View 32 v70,2013-09-10 23:05:00,
2013-09-10 16:10:00,90.0,49.3,28.40,North,360,2.0,12.0,25,0.00,,,0.00,Weather View 32 v70,2013-09-10 23:10:00,
2013-09-10 16:15:00,90.0,49.3,28.40,NE,45,4.0,14.0,25,0.00,,,0.00,Weather View 32 v70,2013-09-10 23:15:00,
2013-09-10 16:20:00,90.0,49.3,28.40,NNW,337,5.0,14.0,25,0.00,,,0.00,Weather View 32 v70,2013-09-10 23:20:00,
2013-09-10 16:25:00,90.0,49.3,28.40,NE,45,6.0,15.0,25,0.00,,,0.00,Weather View 32 v70,2013-09-10 23:25:00,
2013-09-10 16:30:00,90.0,48.2,28.40,NNE,22,9.0,15.0,24,0.00,,,0.00,Weather View 32 v70,2013-09-10 23:30:00,
2013-09-10 16:35:00,90.0,48.2,28.40,East,90,6.0,15.0,24,0.00,,,0.00,Weather View 32 v70,2013-09-10 23:35:00,
2013-09-10 16:40:00,90.0,48.2,28.38,NNW,337,10.0,15.0,24,0.00,,,0.00,Weather View 32 v70,2013-09-10 23:40:00,
2013-09-10 16:45:00,90.0,49.3,28.38,NE,45,9.0,15.0,25,0.00,,,0.00,Weather View 32 v70,2013-09-10 23:45:00,
2013-09-10 16:50:00,90.0,48.2,28.39,North,360,8.0,15.0,24,0.00,,,0.00,Weather View 32 v70,2013-09-10 23:50:00,
2013-09-10 16:55:00,90.0,49.3,28.39,NNW,337,3.0,15.0,25,0.00,,,0.00,Weather View 32 v70,2013-09-10 23:55:00,
2013-09-10 17:00:00,90.0,48.2,28.39,North,360,9.0,15.0,24,0.00,,,0.00,Weather View 32 v70,2013-09-11 00:00:00,
2013-09-10 17:05:00,90.0,48.2,28.39,North,360,9.0,15.0,24,0.00,,,0.00,Weather View 32 v70,2013-09-11 00:05:00,
2013-09-10 17:10:00,90.0,49.3,28.39,North,360,6.0,15.0,25,0.00,,,0.00,Weather View 32 v70,2013-09-11 00:10:00,
2013-09-10 17:15:00,90.0,48.2,28.39,North,360,8.0,15.0,24,0.00,,,0.00,Weather View 32 v70,2013-09-11 00:15:00,
2013-09-10 17:20:00,90.0,48.2,28.38,North,360,7.0,15.0,24,0.00,,,0.00,Weather View 32 v70,2013-09-11 00:20:00,
2013-09-10 17:25:00,90.0,49.3,28.38,North,360,8.0,15.0,25,0.00,,,0.00,Weather View 32 v70,2013-09-11 00:25:00,
2013-09-10 17:30:00,90.0,49.3,28.38,NNE,22,10.0,15.0,25,0.00,,,0.00,Weather View 32 v70,2013-09-11 00:30:00,
2013-09-10 17:35:00,90.0,49.3,28.38,North,360,6.0,15.0,25,0.00,,,0.00,Weather View 32 v70,2013-09-11 00:35:00,
2013-09-10 17:40:00,90.0,49.3,28.38,North,360,7.0,15.0,25,0.00,,,0.00,Weather View 32 v70,2013-09-11 00:40:00,
2013-09-10 17:45:00,89.0,48.5,28.38,NE,45,5.0,15.0,25,0.00,,,0.00,Weather View 32 v70,2013-09-11 00:45:00,
2013-09-10 17:50:00,89.0,49.5,28.38,North,360,10.0,14.0,26,0.00,,,0.00,Weather View 32 v70,2013-09-11 00:50:00,
2013-09-10 17:55:00,89.0,49.5,28.38,NE,45,7.0,14.0,26,0.00,,,0.00,Weather View 32 v70,2013-09-11 00:55:00,
2013-09-10 18:00:00,89.0,48.5,28.38,NE,45,5.0,14.0,25,0.00,,,0.00,Weather View 32 v70,2013-09-11 01:00:00,
2013-09-10 18:05:00,89.0,49.5,28.38,North,360,7.0,14.0,26,0.00,,,0.00,Weather View 32 v70,2013-09-11 01:05:00,
2013-09-10 18:10:00,89.0,48.5,28.38,North,360,5.0,13.0,25,0.00,,,0.00,Weather View 32 v70,2013-09-11 01:10:00,
2013-09-10 18:15:00,89.0,48.5,28.38,North,360,9.0,13.0,25,0.00,,,0.00,Weather View 32 v70,2013-09-11 01:15:00,
2013-09-10 18:20:00,88.0,48.7,28.38,North,360,10.0,13.0,26,0.00,,,0.00,Weather View 32 v70,2013-09-11 01:20:00,
2013-09-10 18:25:00,88.0,48.7,28.38,North,360,8.0,13.0,26,0.00,,,0.00,Weather View 32 v70,2013-09-11 01:25:00,
2013-09-10 18:30:00,88.0,47.7,28.38,North,360,9.0,13.0,25,0.00,,,0.00,Weather View 32 v70,2013-09-11 01:30:00,
2013-09-10 18:35:00,88.0,47.7,28.38,North,360,8.0,13.0,25,0.00,,,0.00,Weather View 32 v70,2013-09-11 01:35:00,
2013-09-10 18:40:00,88.0,48.7,28.38,North,360,6.0,13.0,26,0.00,,,0.00,Weather View 32 v70,2013-09-11 01:40:00,
2013-09-10 18:45:00,87.0,47.9,28.38,North,360,7.0,13.0,26,0.00,,,0.00,Weather View 32 v70,2013-09-11 01:45:00,
2013-09-10 18:50:00,87.0,47.9,28.39,North,360,6.0,12.0,26,0.00,,,0.00,Weather View 32 v70,2013-09-11 01:50:00,
2013-09-10 18:55:00,87.0,47.9,28.39,North,360,6.0,12.0,26,0.00,,,0.00,Weather View 32 v70,2013-09-11 01:55:00,
2013-09-10 19:00:00,86.0,48.0,28.39,NNW,337,2.0,12.0,27,0.00,,,0.00,Weather View 32 v70,2013-09-11 02:00:00,
2013-09-10 19:05:00,86.0,48.0,28.39,North,360,3.0,12.0,27,0.00,,,0.00,Weather View 32 v70,2013-09-11 02:05:00,
2013-09-10 19:10:00,85.0,48.1,28.40,West,270,3.0,12.0,28,0.00,,,0.00,Weather View 32 v70,2013-09-11 02:10:00,
2013-09-10 19:15:00,84.0,50.9,28.40,North,360,6.0,12.0,32,0.00,,,0.00,Weather View 32 v70,2013-09-11 02:15:00,
2013-09-10 19:20:00,83.0,51.6,28.40,North,360,0.0,12.0,34,0.00,,,0.00,Weather View 32 v70,2013-09-11 02:20:00,
2013-09-10 19:25:00,83.0,52.4,28.40,WNW,292,7.0,12.0,35,0.00,,,0.00,Weather View 32 v70,2013-09-11 02:25:00,
2013-09-10 19:30:00,82.0,53.1,28.40,NNW,337,5.0,10.0,37,0.00,,,0.00,Weather View 32 v70,2013-09-11 02:30:00,
2013-09-10 19:35:00,81.0,52.9,28.40,North,360,4.0,9.0,38,0.00,,,0.00,Weather View 32 v70,2013-09-11 02:35:00,
2013-09-10 19:40:00,81.0,52.9,28.40,NW,315,6.0,9.0,38,0.00,,,0.00,Weather View 32 v70,2013-09-11 02:40:00,
2013-09-10 19:45:00,81.0,53.6,28.40,North,360,2.0,9.0,39,0.00,,,0.00,Weather View 32 v70,2013-09-11 02:45:00,
2013-09-10 19:50:00,81.0,53.6,28.41,North,360,3.0,9.0,39,0.00,,,0.00,Weather View 32 v70,2013-09-11 02:50:00,
2013-09-10 19:55:00,80.0,53.4,28.41,North,360,6.0,9.0,40,0.00,,,0.00,Weather View 32 v70,2013-09-11 02:55:00,
2013-09-10 20:00:00,80.0,53.4,28.42,North,360,0.0,9.0,40,0.00,,,0.00,Weather View 32 v70,2013-09-11 03:00:00,
2013-09-10 20:05:00,79.0,53.2,28.42,North,360,0.0,9.0,41,0.00,,,0.00,Weather View 32 v70,2013-09-11 03:05:00,
2013-09-10 20:10:00,79.0,52.5,28.42,East,90,2.0,9.0,40,0.00,,,0.00,Weather View 32 v70,2013-09-11 03:10:00,
2013-09-10 20:15:00,79.0,53.2,28.42,East,90,2.0,9.0,41,0.00,,,0.00,Weather View 32 v70,2013-09-11 03:15:00,
2013-09-10 20:20:00,78.0,52.3,28.43,ENE,67,1.0,8.0,41,0.00,,,0.00,Weather View 32 v70,2013-09-11 03:20:00,
2013-09-10 20:25:00,78.0,52.3,28.43,NE,45,4.0,8.0,41,0.00,,,0.00,Weather View 32 v70,2013-09-11 03:25:00,
2013-09-10 20:30:00,78.0,53.0,28.43,East,90,2.0,8.0,42,0.00,,,0.00,Weather View 32 v70,2013-09-11 03:30:00,
2013-09-10 20:35:00,77.0,52.1,28.43,East,90,1.0,8.0,42,0.00,,,0.00,Weather View 32 v70,2013-09-11 03:35:00,
2013-09-10 20:40:00,77.0,50.8,28.43,NE,45,6.0,8.0,40,0.00,,,0.00,Weather View 32 v70,2013-09-11 03:40:00,
2013-09-10 20:45:00,76.0,50.5,28.43,ENE,67,2.0,7.0,41,0.00,,,0.00,Weather View 32 v70,2013-09-11 03:45:00,
2013-09-10 20:50:00,76.0,50.5,28.43,NE,45,5.0,7.0,41,0.00,,,0.00,Weather View 32 v70,2013-09-11 03:50:00,
2013-09-10 20:55:00,76.0,50.5,28.43,WNW,292,5.0,7.0,41,0.00,,,0.00,Weather View 32 v70,2013-09-11 03:55:00,
2013-09-10 21:00:00,76.0,52.4,28.44,NE,45,2.0,7.0,44,0.00,,,0.00,Weather View 32 v70,2013-09-11 04:00:00,
2013-09-10 21:01:00,76.0,52.4,28.44,NE,45,1.0,7.0,44,0.00,,,0.00,Weather View 32 v70,2013-09-11 04:01:00,
2013-09-10 21:06:00,75.0,52.2,28.44,NE,45,5.0,7.0,45,0.00,,,0.00,Weather View 32 v70,2013-09-11 04:06:00,
2013-09-10 21:11:00,74.0,52.4,28.44,NE,45,3.0,7.0,47,0.00,,,0.00,Weather View 32 v70,2013-09-11 04:11:00,
2013-09-10 21:16:00,74.0,52.4,28.44,NE,45,5.0,7.0,47,0.00,,,0.00,Weather View 32 v70,2013-09-11 04:16:00,
2013-09-10 21:21:00,73.0,52.7,28.45,NE,45,6.0,7.0,49,0.00,,,0.00,Weather View 32 v70,2013-09-11 04:21:00,
2013-09-10 21:26:00,72.0,52.3,28.45,NE,45,3.0,7.0,50,0.00,,,0.00,Weather View 32 v70,2013-09-11 04:26:00,
2013-09-10 21:32:00,72.0,53.4,28.45,NE,45,0.0,7.0,52,0.00,,,0.00,Weather View 32 v70,2013-09-11 04:32:00,
2013-09-10 21:37:00,72.0,52.3,28.45,NE,45,6.0,7.0,50,0.00,,,0.00,Weather View 32 v70,2013-09-11 04:37:00,
2013-09-10 21:42:00,72.0,52.3,28.45,NE,45,6.0,7.0,50,0.00,,,0.00,Weather View 32 v70,2013-09-11 04:42:00,
2013-09-10 21:47:00,72.0,52.8,28.45,NE,45,5.0,7.0,51,0.00,,,0.00,Weather View 32 v70,2013-09-11 04:47:00,
2013-09-10 21:52:00,71.0,51.9,28.45,NE,45,6.0,7.0,51,0.00,,,0.00,Weather View 32 v70,2013-09-11 04:52:00,
2013-09-10 21:57:00,71.0,52.4,28.45,ENE,67,6.0,7.0,52,0.00,,,0.00,Weather View 32 v70,2013-09-11 04:57:00,
2013-09-10 22:02:00,70.0,52.0,28.46,ENE,67,4.0,7.0,53,0.00,,,0.00,Weather View 32 v70,2013-09-11 05:02:00,
2013-09-10 22:07:00,70.0,52.5,28.46,ENE,67,2.0,7.0,54,0.00,,,0.00,Weather View 32 v70,2013-09-11 05:07:00,
2013-09-10 22:12:00,69.0,52.1,28.46,ENE,67,2.0,7.0,55,0.00,,,0.00,Weather View 32 v70,2013-09-11 05:12:00,
2013-09-10 22:17:00,69.0,52.1,28.46,NE,45,2.0,7.0,55,0.00,,,0.00,Weather View 32 v70,2013-09-11 05:17:00,
2013-09-10 22:22:00,69.0,51.6,28.46,ENE,67,6.0,7.0,54,0.00,,,0.00,Weather View 32 v70,2013-09-11 05:22:00,
2013-09-10 22:27:00,69.0,51.6,28.46,East,90,1.0,7.0,54,0.00,,,0.00,Weather View 32 v70,2013-09-11 05:27:00,
2013-09-10 22:32:00,69.0,52.1,28.46,NE,45,3.0,7.0,55,0.00,,,0.00,Weather View 32 v70,2013-09-11 05:32:00,
2013-09-10 22:37:00,69.0,52.1,28.46,ENE,67,3.0,7.0,55,0.00,,,0.00,Weather View 32 v70,2013-09-11 05:37:00,
2013-09-10 22:42:00,68.0,51.2,28.46,ENE,67,1.0,6.0,55,0.00,,,0.00,Weather View 32 v70,2013-09-11 05:42:00,
2013-09-10 22:47:00,68.0,51.2,28.46,ENE,67,2.0,6.0,55,0.00,,,0.00,Weather View 32 v70,2013-09-11 05:47:00,
2013-09-10 22:52:00,68.0,51.2,28.47,ENE,67,3.0,6.0,55,0.00,,,0.00,Weather View 32 v70,2013-09-11 05:52:00,
2013-09-10 22:57:00,68.0,50.7,28.47,ENE,67,1.0,6.0,54,0.00,,,0.00,Weather View 32 v70,2013-09-11 05:57:00,
2013-09-10 23:02:00,68.0,50.7,28.47,ENE,67,1.0,6.0,54,0.00,,,0.00,Weather View 32 v70,2013-09-11 06:02:00,
2013-09-10 23:07:00,68.0,50.2,28.47,East,90,2.0,6.0,53,0.00,,,0.00,Weather View 32 v70,2013-09-11 06:07:00,
2013-09-10 23:12:00,68.0,50.2,28.47,East,90,2.0,6.0,53,0.00,,,0.00,Weather View 32 v70,2013-09-11 06:12:00,
2013-09-10 23:17:00,68.0,49.7,28.47,East,90,0.0,6.0,52,0.00,,,0.00,Weather View 32 v70,2013-09-11 06:17:00,
2013-09-10 23:22:00,68.0,49.7,28.47,East,90,3.0,6.0,52,0.00,,,0.00,Weather View 32 v70,2013-09-11 06:22:00,
2013-09-10 23:27:00,68.0,50.2,28.47,East,90,0.0,5.0,53,0.00,,,0.00,Weather View 32 v70,2013-09-11 06:27:00,
2013-09-10 23:32:00,68.0,51.2,28.47,East,90,0.0,5.0,55,0.00,,,0.00,Weather View 32 v70,2013-09-11 06:32:00,
2013-09-10 23:37:00,67.0,52.6,28.47,East,90,0.0,5.0,60,0.00,,,0.00,Weather View 32 v70,2013-09-11 06:37:00,
2013-09-10 23:42:00,66.0,52.1,28.47,North,360,1.0,5.0,61,0.00,,,0.00,Weather View 32 v70,2013-09-11 06:42:00,
2013-09-10 23:47:00,66.0,53.0,28.47,North,360,0.0,5.0,63,0.00,,,0.00,Weather View 32 v70,2013-09-11 06:47:00,
2013-09-10 23:52:00,66.0,51.2,28.48,North,360,0.0,5.0,59,0.00,,,0.00,Weather View 32 v70,2013-09-11 06:52:00,
2013-09-10 23:57:00,66.0,50.8,28.48,North,360,2.0,5.0,58,0.00,,,0.00,Weather View 32 v70,2013-09-11 06:57:00,